{"data":{"norad_id":54234,"intl_designator":"2022-150A","name":"NOAA 21 (JPSS-2)","alt_names":[],"object_type":"PAYLOAD","status":"ACTIVE","operator":null,"country":"US","launch_date":"2022-11-10","launch_site_code":"AFWTR","launch_vehicle":null,"mission":null,"orbit_class":"UNKNOWN","rcs_meters":null,"size_class":null,"mass_kg":null,"dimensions":null,"purposes":["earth_obs"],"wikipedia_slug":null,"has_3d_model":false,"image_url":null,"decayed_at":null,"tle_current":{"epoch":"2026-05-25T03:02:50.240832Z","epoch_age_seconds":64902,"freshness":"FRESH","line1":"1 54234U 22150A   26145.12697038  .00000052  00000+0  45381-4 0  9993","line2":"2 54234  98.7054  84.3043 0000499 253.6323 106.4799 14.19560683183271","mean_motion":14.19560683,"eccentricity":4.99e-5,"inclination_deg":98.7054,"raan_deg":84.3043,"arg_perigee_deg":253.6323,"mean_anomaly_deg":106.4799,"bstar":4.5381e-5,"rev_number":18327,"period_min":101.43983397433,"perigee_km":826.47938173474,"apogee_km":827.19843833056,"semimajor_km":7204.9759100326,"source":"CELESTRAK","updated_at":"2026-05-25T13:38:12.252108Z"}}}